Location: Barcelona
(41.3829°N, 2.1774°E)
Time: 14:49:54
(UTC+00:00)

ISS - Pass Details

Date: 14 July 2024
Orbit: 410 x 424 km, 51.6° (Epoch: 14 July)

Event Time Altitude Azimuth Distance (km) Brightness Sun altitude
Rises 19:21:25 0° 242° (WSW) 2,331 0.5 -0.5°
Reaches altitude 10° 19:23:31 10° 245° (WSW) 1,471 -0.4 -0.8°
Maximum altitude 19:26:47 61° 327° (NNW) 468 -3.1 -1.3°
Drops below altitude 10° 19:30:04 10° 49° (NE) 1,478 -1.1 -1.9°
Sets 19:32:11 0° 53° (NE) 2,343 -0.2 -2.2°
